Dew Point Data


Current

Temp 53.0 F. Dew Point 42.1 F.


Dew Point Comfort Scale

dewpoints

Date, Time Temperature Dew Point
Mon Oct 8 00:08:04 2018 72.0 F. 66.9 F.
Mon Oct 8 01:08:05 2018 67.0 F. 66.0 F.
Mon Oct 8 02:08:05 2018 71.0 F. 66.9 F.
Mon Oct 8 03:08:05 2018 70.0 F. 68.0 F.
Mon Oct 8 04:08:05 2018 71.0 F. 68.0 F.
Mon Oct 8 05:08:05 2018 70.0 F. 68.0 F.
Mon Oct 8 06:08:05 2018 69.0 F. 66.9 F.
Mon Oct 8 07:08:05 2018 68.0 F. 66.9 F.
Mon Oct 8 08:08:04 2018 68.0 F. 66.9 F.
Mon Oct 8 09:08:04 2018 75.0 F. 68.0 F.
Mon Oct 8 10:08:05 2018 80.0 F. 68.0 F.
Mon Oct 8 11:08:04 2018 80.0 F. 68.0 F.
Mon Oct 8 12:08:05 2018 84.0 F. 68.0 F.
Mon Oct 8 13:08:04 2018 85.0 F. 66.9 F.
Mon Oct 8 14:08:05 2018 84.0 F. 66.9 F.
Mon Oct 8 15:08:05 2018 85.0 F. 66.9 F.
Mon Oct 8 16:08:05 2018 87.0 F. 64.9 F.
Mon Oct 8 16:21:41 2018 87.0 F. 64.9 F.
Mon Oct 8 17:08:06 2018 84.0 F. 66.9 F.
Mon Oct 8 18:08:05 2018 83.0 F. 66.9 F.
Mon Oct 8 19:08:06 2018 83.0 F. 66.9 F.
Mon Oct 8 20:08:05 2018 76.0 F. 68.0 F.
Mon Oct 8 21:08:05 2018 75.0 F. 68.0 F.
Mon Oct 8 22:08:05 2018 74.0 F. 69.1 F.
Mon Oct 8 23:08:05 2018 73.0 F. 69.1 F.
Tue Oct 9 00:08:05 2018 72.0 F. 68.0 F.
Tue Oct 9 01:08:04 2018 71.0 F. 68.0 F.
Tue Oct 9 02:08:05 2018 71.0 F. 68.0 F.
Tue Oct 9 03:08:05 2018 72.0 F. 69.1 F.
Tue Oct 9 04:08:05 2018 73.0 F. 69.1 F.
Tue Oct 9 05:08:05 2018 73.0 F. 68.0 F.
Tue Oct 9 06:08:05 2018 72.0 F. 68.0 F.
Tue Oct 9 07:08:04 2018 71.0 F. 68.0 F.
Tue Oct 9 08:08:05 2018 73.0 F. 68.0 F.
Tue Oct 9 09:08:05 2018 75.0 F. 68.0 F.
Tue Oct 9 10:08:05 2018 77.0 F. 69.1 F.
Tue Oct 9 11:08:05 2018 81.0 F. 69.1 F.
Tue Oct 9 12:08:06 2018 81.0 F. 68.0 F.
Tue Oct 9 13:08:05 2018 86.0 F. 68.0 F.
Tue Oct 9 14:08:05 2018 84.0 F. 68.0 F.
Tue Oct 9 15:08:05 2018 83.0 F. 66.9 F.
Tue Oct 9 16:08:05 2018 86.0 F. 66.0 F.
Tue Oct 9 17:08:06 2018 83.0 F. 66.9 F.
Tue Oct 9 18:08:05 2018 82.0 F. 66.9 F.
Tue Oct 9 19:08:05 2018 82.0 F. 66.9 F.
Tue Oct 9 20:08:10 2018 76.0 F. 66.9 F.
Tue Oct 9 21:08:05 2018 75.0 F. 66.9 F.
Tue Oct 9 22:08:05 2018 75.0 F. 66.9 F.
Tue Oct 9 23:08:06 2018 74.0 F. 66.0 F.
Wed Oct 10 00:08:06 2018 73.0 F. 66.0 F.
Wed Oct 10 01:08:05 2018 73.0 F. 66.9 F.
Wed Oct 10 02:08:05 2018 72.0 F. 66.9 F.
Wed Oct 10 03:08:04 2018 72.0 F. 66.9 F.
Wed Oct 10 04:08:05 2018 72.0 F. 66.9 F.
Wed Oct 10 05:08:04 2018 72.0 F. 66.9 F.
Wed Oct 10 06:08:04 2018 72.0 F. 68.0 F.
Wed Oct 10 07:08:05 2018 72.0 F. 68.0 F.
Wed Oct 10 08:08:06 2018 72.0 F. 68.0 F.
Wed Oct 10 09:08:05 2018 74.0 F. 69.1 F.
Wed Oct 10 10:08:07 2018 73.0 F. 70.0 F.
Wed Oct 10 11:08:04 2018 74.0 F. 69.1 F.
Wed Oct 10 12:08:05 2018 74.0 F. 66.9 F.
Wed Oct 10 13:08:05 2018 75.0 F. 66.9 F.
Wed Oct 10 14:08:05 2018 75.0 F. 66.9 F.
Wed Oct 10 15:08:05 2018 77.0 F. 69.1 F.
Wed Oct 10 16:08:05 2018 73.0 F. 66.0 F.
Wed Oct 10 17:08:13 2018 73.0 F. 66.0 F.
Wed Oct 10 18:08:17 2018 74.0 F. 66.9 F.
Wed Oct 10 19:08:06 2018 70.0 F. 63.0 F.
Wed Oct 10 20:08:05 2018 68.0 F. 59.0 F.
Wed Oct 10 21:08:04 2018 64.0 F. 54.0 F.
Wed Oct 10 22:08:05 2018 61.0 F. 52.0 F.
Wed Oct 10 23:08:05 2018 58.0 F. 50.0 F.
Thu Oct 11 00:08:05 2018 55.0 F. 46.9 F.
Thu Oct 11 01:08:05 2018 53.0 F. 46.9 F.
Thu Oct 11 02:08:04 2018 52.0 F. 46.9 F.
Thu Oct 11 03:08:04 2018 53.0 F. 46.0 F.
Thu Oct 11 04:08:05 2018 52.0 F. 44.1 F.
Thu Oct 11 05:08:04 2018 53.0 F. 45.0 F.
Thu Oct 11 06:08:05 2018 52.0 F. 42.1 F.
Thu Oct 11 07:08:04 2018 51.0 F. 42.1 F.
Thu Oct 11 08:08:05 2018 51.0 F. 42.1 F.
Thu Oct 11 09:08:05 2018 51.0 F. 41.0 F.
Thu Oct 11 10:08:05 2018 52.0 F. 39.9 F.
Thu Oct 11 11:08:04 2018 54.0 F. 39.9 F.
Thu Oct 11 12:08:05 2018 57.0 F. 39.9 F.
Thu Oct 11 13:08:05 2018 59.0 F. 42.1 F.
Thu Oct 11 14:08:10 2018 59.0 F. 39.9 F.
Thu Oct 11 15:08:06 2018 60.0 F. 39.9 F.
Thu Oct 11 16:08:06 2018 61.0 F. 39.0 F.
Thu Oct 11 17:08:05 2018 59.0 F. 39.0 F.
Thu Oct 11 18:08:05 2018 57.0 F. 37.9 F.
Thu Oct 11 19:08:05 2018 52.0 F. 37.9 F.
Thu Oct 11 20:08:05 2018 49.0 F. 39.9 F.
Thu Oct 11 21:08:05 2018 47.0 F. 41.0 F.
Thu Oct 11 22:08:05 2018 46.0 F. 42.1 F.
Thu Oct 11 23:08:05 2018 45.0 F. 42.1 F.
Fri Oct 12 00:08:04 2018 43.0 F. 39.9 F.
Fri Oct 12 01:08:05 2018 42.0 F. 39.9 F.
Fri Oct 12 02:08:05 2018 39.0 F. 37.9 F.
Fri Oct 12 03:08:05 2018 40.0 F. 39.0 F.
Fri Oct 12 04:08:04 2018 38.0 F. 37.0 F.
Fri Oct 12 05:08:05 2018 38.0 F. 37.0 F.
Fri Oct 12 06:08:05 2018 38.0 F. 37.9 F.
Fri Oct 12 07:08:04 2018 38.0 F. 37.0 F.
Fri Oct 12 08:08:04 2018 42.0 F. 41.0 F.
Fri Oct 12 09:08:05 2018 46.0 F. 39.9 F.
Fri Oct 12 10:08:06 2018 47.0 F. 39.9 F.
Fri Oct 12 11:08:05 2018 51.0 F. 37.9 F.
Fri Oct 12 12:08:04 2018 50.0 F. 37.0 F.
Fri Oct 12 13:08:05 2018 51.0 F. 37.9 F.
Fri Oct 12 14:08:05 2018 50.0 F. 39.0 F.
Fri Oct 12 15:08:06 2018 47.0 F. 42.1 F.
Fri Oct 12 16:08:05 2018 46.0 F. 43.0 F.
Fri Oct 12 17:08:05 2018 45.0 F. 44.1 F.
Fri Oct 12 18:08:04 2018 45.0 F. 43.0 F.
Fri Oct 12 19:08:06 2018 45.0 F. 44.1 F.
Fri Oct 12 20:08:05 2018 45.0 F. 43.0 F.
Fri Oct 12 21:08:05 2018 45.0 F. 44.1 F.
Fri Oct 12 22:08:05 2018 45.0 F. 44.1 F.
Fri Oct 12 23:08:04 2018 45.0 F. 43.0 F.
Sat Oct 13 00:08:05 2018 45.0 F. 44.1 F.
Sat Oct 13 01:08:05 2018 45.0 F. 44.1 F.
Sat Oct 13 02:08:04 2018 45.0 F. 43.0 F.
Sat Oct 13 03:08:04 2018 45.0 F. 43.0 F.
Sat Oct 13 04:08:05 2018 45.0 F. 42.1 F.
Sat Oct 13 05:08:04 2018 45.0 F. 43.0 F.
Sat Oct 13 06:08:05 2018 45.0 F. 43.0 F.
Sat Oct 13 07:08:05 2018 45.0 F. 42.1 F.
Sat Oct 13 08:08:04 2018 45.0 F. 42.1 F.
Sat Oct 13 09:08:06 2018 45.0 F. 41.0 F.
Sat Oct 13 10:08:05 2018 46.0 F. 39.9 F.
Sat Oct 13 11:08:04 2018 46.0 F. 39.0 F.
Sat Oct 13 12:08:04 2018 46.0 F. 39.9 F.
Sat Oct 13 13:08:05 2018 48.0 F. 39.9 F.
Sat Oct 13 14:08:05 2018 48.0 F. 39.9 F.
Sat Oct 13 15:08:05 2018 49.0 F. 41.0 F.
Sat Oct 13 16:08:05 2018 49.0 F. 41.0 F.
Sat Oct 13 17:08:05 2018 49.0 F. 42.1 F.
Sat Oct 13 18:08:05 2018 49.0 F. 42.1 F.
Sat Oct 13 19:08:05 2018 48.0 F. 43.0 F.
Sat Oct 13 20:08:05 2018 47.0 F. 45.0 F.
Sat Oct 13 21:08:05 2018 47.0 F. 45.0 F.
Sat Oct 13 22:08:05 2018 47.0 F. 45.0 F.
Sat Oct 13 23:08:05 2018 47.0 F. 46.0 F.
Sun Oct 14 00:08:06 2018 47.0 F. 46.0 F.
Sun Oct 14 01:08:04 2018 47.0 F. 46.0 F.
Sun Oct 14 02:08:05 2018 47.0 F. 46.0 F.
Sun Oct 14 03:08:05 2018 47.0 F. 46.0 F.
Sun Oct 14 04:08:05 2018 47.0 F. 46.0 F.
Sun Oct 14 05:08:04 2018 48.0 F. 46.9 F.
Sun Oct 14 06:08:05 2018 48.0 F. 46.9 F.
Sun Oct 14 07:08:05 2018 49.0 F. 48.0 F.
Sun Oct 14 08:08:05 2018 49.0 F. 48.0 F.
Sun Oct 14 09:08:05 2018 50.0 F. 48.9 F.
Sun Oct 14 10:08:05 2018 51.0 F. 50.0 F.
Sun Oct 14 11:08:05 2018 52.0 F. 51.1 F.
Sun Oct 14 12:08:05 2018 53.0 F. 52.0 F.
Sun Oct 14 13:08:05 2018 54.0 F. 53.1 F.
Sun Oct 14 14:08:05 2018 55.0 F. 53.1 F.
Sun Oct 14 15:08:05 2018 55.0 F. 53.1 F.
Sun Oct 14 16:08:05 2018 55.0 F. 53.1 F.
Sun Oct 14 17:08:10 2018 55.0 F. 53.1 F.
Sun Oct 14 18:08:05 2018 54.0 F. 54.0 F.
Sun Oct 14 19:08:04 2018 54.0 F. 54.0 F.
Sun Oct 14 20:08:05 2018 54.0 F. 54.0 F.
Sun Oct 14 21:08:05 2018 55.0 F. 54.0 F.
Sun Oct 14 22:08:05 2018 54.0 F. 54.0 F.
Sun Oct 14 23:08:05 2018 54.0 F. 54.0 F.
Mon Oct 15 00:08:05 2018 54.0 F. 54.0 F.
Mon Oct 15 01:08:05 2018 54.0 F. 53.1 F.
Mon Oct 15 02:08:04 2018 54.0 F. 53.1 F.
Mon Oct 15 03:08:05 2018 54.0 F. 53.1 F.
Mon Oct 15 04:08:05 2018 54.0 F. 53.1 F.
Mon Oct 15 05:08:05 2018 54.0 F. 53.1 F.
Mon Oct 15 06:08:04 2018 51.0 F. 50.0 F.
Mon Oct 15 07:08:05 2018 47.0 F. 46.0 F.
Mon Oct 15 08:08:05 2018 45.0 F. 44.1 F.
Mon Oct 15 09:08:04 2018 45.0 F. 43.0 F.
Mon Oct 15 10:08:06 2018 45.0 F. 42.1 F.
Mon Oct 15 11:08:05 2018 44.0 F. 39.9 F.
Mon Oct 15 12:08:04 2018 44.0 F. 39.0 F.
Mon Oct 15 13:08:05 2018 43.0 F. 37.9 F.
Mon Oct 15 14:08:04 2018 43.0 F. 37.0 F.
Mon Oct 15 15:08:05 2018 44.0 F. 36.0 F.
Mon Oct 15 16:08:05 2018 45.0 F. 36.0 F.
Mon Oct 15 17:08:05 2018 45.0 F. 36.0 F.
Mon Oct 15 18:08:05 2018 44.0 F. 36.0 F.
Mon Oct 15 19:08:05 2018 43.0 F. 37.0 F.
Mon Oct 15 20:08:05 2018 42.0 F. 37.9 F.
Mon Oct 15 21:08:04 2018 42.0 F. 39.0 F.
Mon Oct 15 22:08:05 2018 41.0 F. 39.9 F.
Mon Oct 15 23:08:05 2018 41.0 F. 39.9 F.
Tue Oct 16 00:08:05 2018 41.0 F. 39.9 F.
Tue Oct 16 01:08:05 2018 41.0 F. 39.0 F.
Tue Oct 16 02:08:05 2018 39.0 F. 37.9 F.
Tue Oct 16 03:08:05 2018 39.0 F. 37.9 F.
Tue Oct 16 04:08:05 2018 38.0 F. 37.0 F.
Tue Oct 16 05:08:05 2018 39.0 F. 37.9 F.
Tue Oct 16 06:08:04 2018 39.0 F. 37.0 F.
Tue Oct 16 07:08:06 2018 39.0 F. 37.0 F.
Tue Oct 16 08:08:05 2018 40.0 F. 39.0 F.
Tue Oct 16 09:08:05 2018 42.0 F. 39.0 F.
Tue Oct 16 10:08:04 2018 45.0 F. 37.0 F.
Tue Oct 16 11:08:05 2018 48.0 F. 34.0 F.
Tue Oct 16 12:08:05 2018 49.0 F. 36.0 F.
Tue Oct 16 13:08:05 2018 49.0 F. 37.0 F.
Tue Oct 16 14:08:04 2018 50.0 F. 37.0 F.
Tue Oct 16 15:08:04 2018 50.0 F. 37.9 F.
Tue Oct 16 16:08:05 2018 51.0 F. 37.9 F.
Tue Oct 16 17:08:05 2018 50.0 F. 39.0 F.
Tue Oct 16 18:08:05 2018 49.0 F. 39.9 F.
Tue Oct 16 19:08:05 2018 44.0 F. 39.9 F.
Tue Oct 16 20:08:05 2018 43.0 F. 39.9 F.
Tue Oct 16 21:08:05 2018 42.0 F. 39.9 F.
Tue Oct 16 22:08:04 2018 41.0 F. 39.9 F.
Tue Oct 16 23:08:05 2018 41.0 F. 39.0 F.
Wed Oct 17 00:08:05 2018 41.0 F. 39.0 F.
Wed Oct 17 01:08:04 2018 38.0 F. 37.0 F.
Wed Oct 17 02:08:05 2018 38.0 F. 37.0 F.
Wed Oct 17 03:08:04 2018 37.0 F. 36.0 F.
Wed Oct 17 04:08:04 2018 38.0 F. 37.0 F.
Wed Oct 17 05:08:05 2018 38.0 F. 37.0 F.
Wed Oct 17 06:08:05 2018 37.0 F. 37.0 F.
Wed Oct 17 07:08:05 2018 38.0 F. 37.0 F.
Wed Oct 17 08:08:05 2018 41.0 F. 39.9 F.
Wed Oct 17 09:08:06 2018 49.0 F. 43.0 F.
Wed Oct 17 10:08:05 2018 54.0 F. 42.1 F.
Wed Oct 17 11:08:05 2018 59.0 F. 42.1 F.
Wed Oct 17 12:08:05 2018 62.0 F. 39.0 F.
Wed Oct 17 13:08:05 2018 63.0 F. 39.0 F.
Wed Oct 17 14:08:05 2018 65.0 F. 37.9 F.
Wed Oct 17 15:08:05 2018 63.0 F. 37.0 F.
Wed Oct 17 16:08:05 2018 64.0 F. 36.0 F.
Wed Oct 17 17:08:05 2018 61.0 F. 36.0 F.
Wed Oct 17 18:08:05 2018 56.0 F. 42.1 F.
Wed Oct 17 19:08:05 2018 50.0 F. 43.0 F.
Wed Oct 17 20:08:05 2018 48.0 F. 43.0 F.
Wed Oct 17 21:08:05 2018 48.0 F. 41.0 F.
Wed Oct 17 22:08:05 2018 45.0 F. 41.0 F.
Wed Oct 17 23:08:05 2018 47.0 F. 39.0 F.
Thu Oct 18 00:08:04 2018 45.0 F. 39.9 F.
Thu Oct 18 01:08:05 2018 42.0 F. 39.9 F.
Thu Oct 18 02:08:05 2018 40.0 F. 37.9 F.
Thu Oct 18 03:08:05 2018 39.0 F. 37.9 F.
Thu Oct 18 04:08:05 2018 38.0 F. 37.9 F.
Thu Oct 18 05:08:05 2018 37.0 F. 37.0 F.
Thu Oct 18 06:08:05 2018 34.0 F. 34.0 F.
Thu Oct 18 07:08:04 2018 36.0 F. 35.1 F.
Thu Oct 18 08:08:05 2018 38.0 F. 37.0 F.
Thu Oct 18 09:08:05 2018 45.0 F. 37.9 F.
Thu Oct 18 10:08:05 2018 49.0 F. 37.9 F.
Thu Oct 18 11:08:05 2018 53.0 F. 35.1 F.
Thu Oct 18 12:08:05 2018 56.0 F. 34.0 F.
Thu Oct 18 13:08:05 2018 57.0 F. 33.1 F.
Thu Oct 18 14:08:05 2018 58.0 F. 34.0 F.
Thu Oct 18 15:08:05 2018 61.0 F. 32.0 F.
Thu Oct 18 16:08:05 2018 61.0 F. 33.1 F.
Thu Oct 18 17:08:05 2018 61.0 F. 33.1 F.
Thu Oct 18 18:08:05 2018 58.0 F. 36.0 F.
Thu Oct 18 19:08:05 2018 47.0 F. 39.9 F.
Thu Oct 18 20:08:05 2018 44.0 F. 39.9 F.
Thu Oct 18 21:08:05 2018 44.0 F. 41.0 F.
Thu Oct 18 22:08:06 2018 41.0 F. 39.0 F.
Thu Oct 18 23:08:05 2018 38.0 F. 37.0 F.
Fri Oct 19 00:08:04 2018 36.0 F. 36.0 F.
Fri Oct 19 01:08:05 2018 39.0 F. 37.0 F.
Fri Oct 19 02:08:05 2018 37.0 F. 36.0 F.
Fri Oct 19 03:08:05 2018 36.0 F. 36.0 F.
Fri Oct 19 04:08:05 2018 34.0 F. 34.0 F.
Fri Oct 19 05:08:05 2018 35.0 F. 34.0 F.
Fri Oct 19 06:08:05 2018 37.0 F. 37.0 F.
Fri Oct 19 07:08:04 2018 36.0 F. 36.0 F.
Fri Oct 19 08:08:05 2018 40.0 F. 39.9 F.
Fri Oct 19 09:08:05 2018 47.0 F. 44.1 F.
Fri Oct 19 10:08:05 2018 54.0 F. 42.1 F.
Fri Oct 19 11:08:05 2018 57.0 F. 39.9 F.
Fri Oct 19 12:08:05 2018 54.0 F. 41.0 F.
Fri Oct 19 13:08:06 2018 51.0 F. 46.0 F.
Fri Oct 19 14:08:06 2018 50.0 F. 46.0 F.
Fri Oct 19 15:08:05 2018 51.0 F. 46.9 F.
Fri Oct 19 16:08:06 2018 50.0 F. 48.0 F.
Fri Oct 19 17:08:06 2018 49.0 F. 48.0 F.
Fri Oct 19 18:08:04 2018 50.0 F. 48.0 F.
Fri Oct 19 19:08:05 2018 50.0 F. 48.0 F.
Fri Oct 19 20:08:05 2018 50.0 F. 48.9 F.
Fri Oct 19 21:08:05 2018 50.0 F. 48.9 F.
Fri Oct 19 22:08:05 2018 50.0 F. 48.9 F.
Fri Oct 19 23:08:05 2018 51.0 F. 48.9 F.
Sat Oct 20 00:08:05 2018 50.0 F. 48.9 F.
Sat Oct 20 01:08:05 2018 49.0 F. 48.0 F.
Sat Oct 20 02:08:05 2018 48.0 F. 48.0 F.
Sat Oct 20 03:08:05 2018 49.0 F. 48.9 F.
Sat Oct 20 04:08:05 2018 49.0 F. 48.0 F.
Sat Oct 20 05:08:05 2018 49.0 F. 48.9 F.
Sat Oct 20 06:08:05 2018 48.0 F. 48.0 F.
Sat Oct 20 07:08:05 2018 48.0 F. 48.0 F.
Sat Oct 20 08:08:05 2018 48.0 F. 48.0 F.
Sat Oct 20 09:08:05 2018 52.0 F. 51.1 F.
Sat Oct 20 10:08:05 2018 57.0 F. 50.0 F.
Sat Oct 20 11:08:05 2018 61.0 F. 45.0 F.
Sat Oct 20 12:08:05 2018 63.0 F. 37.9 F.
Sat Oct 20 13:08:04 2018 64.0 F. 37.0 F.
Sat Oct 20 14:08:05 2018 65.0 F. 36.0 F.
Sat Oct 20 15:08:05 2018 65.0 F. 36.0 F.
Sat Oct 20 16:08:05 2018 66.0 F. 35.1 F.
Sat Oct 20 17:08:05 2018 64.0 F. 30.9 F.
Sat Oct 20 18:08:06 2018 60.0 F. 32.0 F.
Sat Oct 20 19:08:04 2018 55.0 F. 30.0 F.
Sat Oct 20 20:08:05 2018 53.0 F. 28.0 F.
Sat Oct 20 21:08:05 2018 48.0 F. 26.1 F.
Sat Oct 20 22:08:05 2018 45.0 F. 25.0 F.
Sat Oct 20 23:08:05 2018 41.0 F. 23.0 F.
Sun Oct 21 00:08:05 2018 39.0 F. 21.9 F.
Sun Oct 21 01:08:05 2018 36.0 F. 24.1 F.
Sun Oct 21 02:08:05 2018 32.0 F. 27.0 F.
Sun Oct 21 03:08:04 2018 33.0 F. 27.0 F.
Sun Oct 21 04:08:04 2018 29.0 F. 26.1 F.
Sun Oct 21 05:08:04 2018 28.0 F. 26.1 F.
Sun Oct 21 06:08:06 2018 28.0 F. 26.1 F.
Sun Oct 21 07:08:06 2018 29.0 F. 26.1 F.
Sun Oct 21 08:08:05 2018 28.0 F. 27.0 F.
Sun Oct 21 09:08:05 2018 36.0 F. 28.9 F.
Sun Oct 21 10:08:05 2018 41.0 F. 25.0 F.
Sun Oct 21 11:08:04 2018 44.0 F. 25.0 F.
Sun Oct 21 12:08:04 2018 46.0 F. 23.0 F.
Sun Oct 21 13:08:05 2018 49.0 F. 23.0 F.
Sun Oct 21 14:08:04 2018 50.0 F. 23.0 F.
Sun Oct 21 15:08:05 2018 52.0 F. 24.1 F.
Sun Oct 21 16:08:05 2018 53.0 F. 26.1 F.
Sun Oct 21 17:08:05 2018 53.0 F. 26.1 F.
Sun Oct 21 18:08:10 2018 50.0 F. 30.0 F.
Sun Oct 21 19:08:05 2018 43.0 F. 28.9 F.
Sun Oct 21 20:08:04 2018 39.0 F. 30.0 F.
Sun Oct 21 21:08:05 2018 39.0 F. 30.9 F.
Sun Oct 21 22:08:06 2018 35.0 F. 32.0 F.
Sun Oct 21 23:08:04 2018 34.0 F. 30.9 F.
Mon Oct 22 00:08:04 2018 36.0 F. 32.0 F.
Mon Oct 22 01:08:05 2018 34.0 F. 30.0 F.
Mon Oct 22 02:08:04 2018 35.0 F. 30.9 F.
Mon Oct 22 03:08:05 2018 33.0 F. 30.9 F.
Mon Oct 22 04:08:05 2018 34.0 F. 32.0 F.
Mon Oct 22 05:08:05 2018 34.0 F. 30.9 F.
Mon Oct 22 06:08:05 2018 34.0 F. 30.9 F.
Mon Oct 22 07:08:05 2018 33.0 F. 30.9 F.
Mon Oct 22 08:08:05 2018 38.0 F. 33.1 F.
Mon Oct 22 09:08:05 2018 47.0 F. 36.0 F.
Mon Oct 22 10:08:04 2018 53.0 F. 36.0 F.
Mon Oct 22 11:08:04 2018 56.0 F. 35.1 F.
Mon Oct 22 12:08:04 2018 58.0 F. 37.0 F.
Mon Oct 22 13:08:05 2018 62.0 F. 37.0 F.
Mon Oct 22 14:08:05 2018 63.0 F. 37.9 F.
Mon Oct 22 15:08:04 2018 64.0 F. 37.9 F.
Mon Oct 22 16:08:04 2018 64.0 F. 39.0 F.
Mon Oct 22 17:08:05 2018 62.0 F. 39.0 F.
Mon Oct 22 18:08:05 2018 55.0 F. 37.9 F.
Mon Oct 22 19:08:05 2018 52.0 F. 39.0 F.
Mon Oct 22 20:08:05 2018 45.0 F. 39.0 F.
Mon Oct 22 21:08:05 2018 46.0 F. 39.0 F.
Mon Oct 22 22:08:05 2018 46.0 F. 39.0 F.
Mon Oct 22 23:08:05 2018 45.0 F. 37.9 F.
Tue Oct 23 00:08:04 2018 45.0 F. 37.9 F.
Tue Oct 23 01:08:05 2018 42.0 F. 39.0 F.
Tue Oct 23 02:08:05 2018 42.0 F. 39.0 F.
Tue Oct 23 03:08:05 2018 41.0 F. 39.0 F.
Tue Oct 23 04:08:04 2018 40.0 F. 39.0 F.
Tue Oct 23 05:08:05 2018 39.0 F. 37.9 F.
Tue Oct 23 06:08:05 2018 40.0 F. 39.0 F.
Tue Oct 23 07:08:06 2018 38.0 F. 37.0 F.
Tue Oct 23 08:08:04 2018 38.0 F. 37.9 F.
Tue Oct 23 09:08:05 2018 47.0 F. 43.0 F.
Tue Oct 23 10:08:05 2018 55.0 F. 44.1 F.
Tue Oct 23 11:08:05 2018 62.0 F. 39.9 F.
Tue Oct 23 12:08:05 2018 65.0 F. 36.0 F.
Tue Oct 23 13:08:05 2018 67.0 F. 35.1 F.
Tue Oct 23 14:08:05 2018 68.0 F. 36.0 F.
Tue Oct 23 15:08:05 2018 69.0 F. 36.0 F.
Tue Oct 23 16:08:05 2018 68.0 F. 34.0 F.
Tue Oct 23 17:08:06 2018 66.0 F. 30.0 F.
Tue Oct 23 18:08:04 2018 59.0 F. 30.9 F.
Tue Oct 23 19:08:05 2018 53.0 F. 33.1 F.
Tue Oct 23 20:08:05 2018 47.0 F. 37.9 F.
Tue Oct 23 21:08:05 2018 47.0 F. 36.0 F.
Tue Oct 23 22:08:05 2018 47.0 F. 33.1 F.
Tue Oct 23 23:08:05 2018 42.0 F. 34.0 F.
Wed Oct 24 00:08:05 2018 38.0 F. 36.0 F.
Wed Oct 24 01:08:04 2018 36.0 F. 35.1 F.
Wed Oct 24 02:08:05 2018 33.0 F. 33.1 F.
Wed Oct 24 03:08:05 2018 33.0 F. 32.0 F.
Wed Oct 24 04:08:05 2018 38.0 F. 34.0 F.
Wed Oct 24 05:08:04 2018 37.0 F. 33.1 F.
Wed Oct 24 06:08:05 2018 31.0 F. 30.9 F.
Wed Oct 24 07:08:05 2018 32.0 F. 30.9 F.
Wed Oct 24 08:08:05 2018 31.0 F. 30.9 F.
Wed Oct 24 09:08:04 2018 42.0 F. 37.0 F.
Wed Oct 24 10:08:05 2018 48.0 F. 37.9 F.
Wed Oct 24 11:08:05 2018 52.0 F. 37.0 F.
Wed Oct 24 12:08:05 2018 55.0 F. 37.0 F.
Wed Oct 24 13:08:05 2018 57.0 F. 36.0 F.
Wed Oct 24 14:08:05 2018 60.0 F. 35.1 F.
Wed Oct 24 15:08:05 2018 59.0 F. 35.1 F.
Wed Oct 24 16:08:05 2018 60.0 F. 35.1 F.
Wed Oct 24 17:08:05 2018 58.0 F. 35.1 F.
Wed Oct 24 18:08:05 2018 53.0 F. 36.0 F.
Wed Oct 24 19:08:06 2018 47.0 F. 37.9 F.
Wed Oct 24 20:08:05 2018 44.0 F. 39.0 F.
Wed Oct 24 21:08:05 2018 46.0 F. 37.9 F.
Wed Oct 24 22:08:05 2018 47.0 F. 37.9 F.
Wed Oct 24 23:08:04 2018 43.0 F. 39.0 F.
Thu Oct 25 00:08:05 2018 44.0 F. 39.9 F.
Thu Oct 25 01:08:05 2018 45.0 F. 37.9 F.
Thu Oct 25 02:08:05 2018 45.0 F. 37.9 F.
Thu Oct 25 03:08:05 2018 43.0 F. 39.9 F.
Thu Oct 25 04:08:05 2018 44.0 F. 39.0 F.
Thu Oct 25 05:08:04 2018 45.0 F. 37.9 F.
Thu Oct 25 06:08:05 2018 44.0 F. 37.9 F.
Thu Oct 25 07:08:04 2018 45.0 F. 37.9 F.
Thu Oct 25 08:08:04 2018 45.0 F. 37.0 F.
Thu Oct 25 09:08:05 2018 46.0 F. 37.9 F.
Thu Oct 25 10:08:05 2018 47.0 F. 37.9 F.
Thu Oct 25 11:08:05 2018 48.0 F. 39.0 F.
Thu Oct 25 12:08:05 2018 51.0 F. 39.0 F.
Thu Oct 25 13:08:05 2018 52.0 F. 39.9 F.
Thu Oct 25 14:08:04 2018 53.0 F. 41.0 F.
Thu Oct 25 15:08:04 2018 54.0 F. 43.0 F.
Thu Oct 25 16:08:05 2018 55.0 F. 43.0 F.
Thu Oct 25 17:08:05 2018 54.0 F. 43.0 F.
Thu Oct 25 18:08:06 2018 53.0 F. 44.1 F.
Thu Oct 25 19:08:05 2018 53.0 F. 45.0 F.
Thu Oct 25 20:08:05 2018 53.0 F. 46.0 F.
Thu Oct 25 21:08:05 2018 53.0 F. 46.9 F.
Thu Oct 25 22:08:05 2018 52.0 F. 46.9 F.
Thu Oct 25 23:08:05 2018 52.0 F. 48.0 F.
Fri Oct 26 00:08:05 2018 50.0 F. 50.0 F.
Fri Oct 26 01:08:05 2018 51.0 F. 50.0 F.
Fri Oct 26 02:08:04 2018 51.0 F. 50.0 F.
Fri Oct 26 03:08:05 2018 51.0 F. 50.0 F.
Fri Oct 26 04:08:05 2018 51.0 F. 50.0 F.
Fri Oct 26 05:08:05 2018 50.0 F. 48.9 F.
Fri Oct 26 06:08:05 2018 50.0 F. 48.9 F.
Fri Oct 26 07:08:05 2018 50.0 F. 50.0 F.
Fri Oct 26 08:08:05 2018 50.0 F. 50.0 F.
Fri Oct 26 09:08:05 2018 51.0 F. 50.0 F.
Fri Oct 26 10:08:05 2018 51.0 F. 50.0 F.
Fri Oct 26 11:08:05 2018 51.0 F. 50.0 F.
Fri Oct 26 12:08:05 2018 52.0 F. 51.1 F.
Fri Oct 26 13:08:05 2018 52.0 F. 50.0 F.
Fri Oct 26 14:08:05 2018 52.0 F. 50.0 F.
Fri Oct 26 15:08:05 2018 52.0 F. 48.9 F.
Fri Oct 26 16:08:04 2018 51.0 F. 48.0 F.
Fri Oct 26 17:08:04 2018 51.0 F. 48.0 F.
Fri Oct 26 18:08:05 2018 50.0 F. 48.0 F.
Fri Oct 26 19:08:04 2018 49.0 F. 48.0 F.
Fri Oct 26 20:08:05 2018 49.0 F. 48.0 F.
Fri Oct 26 21:08:05 2018 49.0 F. 46.9 F.
Fri Oct 26 22:08:05 2018 48.0 F. 46.9 F.
Fri Oct 26 23:08:05 2018 48.0 F. 46.9 F.
Sat Oct 27 00:08:05 2018 48.0 F. 46.0 F.
Sat Oct 27 01:08:05 2018 48.0 F. 46.9 F.
Sat Oct 27 02:08:05 2018 47.0 F. 46.0 F.
Sat Oct 27 03:08:05 2018 48.0 F. 46.0 F.
Sat Oct 27 04:08:05 2018 48.0 F. 46.0 F.
Sat Oct 27 05:08:04 2018 47.0 F. 45.0 F.
Sat Oct 27 06:08:05 2018 44.0 F. 44.1 F.
Sat Oct 27 07:08:04 2018 44.0 F. 43.0 F.
Sat Oct 27 08:08:05 2018 45.0 F. 44.1 F.
Sat Oct 27 09:08:05 2018 47.0 F. 45.0 F.
Sat Oct 27 10:08:05 2018 49.0 F. 46.0 F.
Sat Oct 27 11:08:05 2018 53.0 F. 44.1 F.
Sat Oct 27 12:08:04 2018 55.0 F. 42.1 F.
Sat Oct 27 13:08:04 2018 58.0 F. 41.0 F.
Sat Oct 27 14:08:05 2018 60.0 F. 39.9 F.
Sat Oct 27 15:08:04 2018 59.0 F. 39.9 F.
Sat Oct 27 16:08:05 2018 61.0 F. 41.0 F.
Sat Oct 27 17:08:05 2018 60.0 F. 42.1 F.
Sat Oct 27 18:08:05 2018 56.0 F. 44.1 F.
Sat Oct 27 19:08:04 2018 48.0 F. 44.1 F.
Sat Oct 27 20:08:04 2018 47.0 F. 44.1 F.
Sat Oct 27 21:08:05 2018 43.0 F. 42.1 F.
Sat Oct 27 22:08:05 2018 42.0 F. 42.1 F.
Sat Oct 27 23:08:05 2018 43.0 F. 42.1 F.
Sun Oct 28 00:08:05 2018 41.0 F. 39.9 F.
Sun Oct 28 01:08:04 2018 40.0 F. 39.0 F.
Sun Oct 28 02:08:04 2018 44.0 F. 43.0 F.
Sun Oct 28 03:08:04 2018 48.0 F. 46.0 F.
Sun Oct 28 04:08:05 2018 50.0 F. 48.0 F.
Sun Oct 28 05:08:04 2018 50.0 F. 46.9 F.
Sun Oct 28 06:08:05 2018 52.0 F. 48.0 F.
Sun Oct 28 07:08:05 2018 53.0 F. 48.0 F.
Sun Oct 28 08:08:05 2018 55.0 F. 48.9 F.
Sun Oct 28 09:08:05 2018 57.0 F. 48.9 F.
Sun Oct 28 10:08:05 2018 59.0 F. 48.0 F.
Sun Oct 28 11:08:05 2018 64.0 F. 45.0 F.
Sun Oct 28 12:08:04 2018 66.0 F. 42.1 F.
Sun Oct 28 13:08:05 2018 66.0 F. 37.9 F.
Sun Oct 28 14:08:05 2018 67.0 F. 36.0 F.
Sun Oct 28 15:08:05 2018 68.0 F. 35.1 F.
Sun Oct 28 16:08:05 2018 68.0 F. 30.9 F.
Sun Oct 28 17:08:05 2018 66.0 F. 32.0 F.
Sun Oct 28 18:08:05 2018 61.0 F. 34.0 F.
Sun Oct 28 19:08:05 2018 58.0 F. 34.0 F.
Sun Oct 28 20:08:05 2018 56.0 F. 33.1 F.
Sun Oct 28 21:08:05 2018 52.0 F. 34.0 F.
Sun Oct 28 22:08:05 2018 51.0 F. 35.1 F.
Sun Oct 28 23:08:04 2018 46.0 F. 36.0 F.
Mon Oct 29 00:08:06 2018 41.0 F. 35.1 F.
Mon Oct 29 01:08:05 2018 40.0 F. 37.0 F.
Mon Oct 29 02:08:04 2018 39.0 F. 36.0 F.
Mon Oct 29 03:08:04 2018 38.0 F. 36.0 F.
Mon Oct 29 04:08:05 2018 38.0 F. 36.0 F.
Mon Oct 29 05:08:05 2018 35.0 F. 34.0 F.
Mon Oct 29 06:08:05 2018 34.0 F. 33.1 F.
Mon Oct 29 07:08:04 2018 35.0 F. 34.0 F.
Mon Oct 29 08:08:06 2018 35.0 F. 34.0 F.
Mon Oct 29 09:08:05 2018 44.0 F. 39.9 F.
Mon Oct 29 10:08:05 2018 52.0 F. 41.0 F.
Mon Oct 29 11:08:05 2018 60.0 F. 39.9 F.
Mon Oct 29 12:08:05 2018 64.0 F. 37.9 F.
Mon Oct 29 13:08:06 2018 66.0 F. 39.0 F.
Mon Oct 29 14:08:05 2018 67.0 F. 37.0 F.
Mon Oct 29 15:08:05 2018 68.0 F. 37.9 F.
Mon Oct 29 16:08:05 2018 68.0 F. 41.0 F.
Mon Oct 29 17:08:05 2018 65.0 F. 37.9 F.
Mon Oct 29 18:08:05 2018 60.0 F. 39.9 F.
Mon Oct 29 19:08:05 2018 53.0 F. 39.9 F.
Mon Oct 29 20:08:05 2018 49.0 F. 42.1 F.
Mon Oct 29 21:08:05 2018 49.0 F. 41.0 F.
Mon Oct 29 22:08:05 2018 48.0 F. 39.9 F.
Mon Oct 29 23:08:05 2018 45.0 F. 41.0 F.
Tue Oct 30 00:08:04 2018 49.0 F. 39.9 F.
Tue Oct 30 01:08:04 2018 48.0 F. 39.9 F.
Tue Oct 30 02:08:05 2018 51.0 F. 39.9 F.
Tue Oct 30 03:08:05 2018 49.0 F. 41.0 F.
Tue Oct 30 04:08:04 2018 50.0 F. 41.0 F.
Tue Oct 30 05:08:05 2018 49.0 F. 41.0 F.
Tue Oct 30 06:08:05 2018 50.0 F. 41.0 F.
Tue Oct 30 07:08:05 2018 50.0 F. 42.1 F.
Tue Oct 30 08:08:05 2018 51.0 F. 43.0 F.
Tue Oct 30 09:08:05 2018 56.0 F. 45.0 F.
Tue Oct 30 10:08:04 2018 61.0 F. 48.9 F.
Tue Oct 30 11:08:05 2018 63.0 F. 52.0 F.
Tue Oct 30 12:08:05 2018 67.0 F. 54.0 F.
Tue Oct 30 13:08:05 2018 72.0 F. 57.0 F.
Tue Oct 30 14:08:07 2018 74.0 F. 57.0 F.
Tue Oct 30 15:08:04 2018 77.0 F. 57.0 F.
Tue Oct 30 16:08:06 2018 76.0 F. 54.0 F.
Tue Oct 30 17:08:06 2018 74.0 F. 57.0 F.
Tue Oct 30 18:08:05 2018 72.0 F. 57.9 F.
Tue Oct 30 19:08:05 2018 71.0 F. 57.9 F.
Tue Oct 30 20:08:05 2018 69.0 F. 59.0 F.
Tue Oct 30 21:08:05 2018 69.0 F. 59.0 F.
Tue Oct 30 22:08:05 2018 69.0 F. 55.0 F.
Tue Oct 30 23:08:06 2018 68.0 F. 54.0 F.
Wed Oct 31 00:08:04 2018 68.0 F. 55.0 F.
Wed Oct 31 01:08:05 2018 68.0 F. 55.0 F.
Wed Oct 31 02:08:05 2018 68.0 F. 55.9 F.
Wed Oct 31 03:08:05 2018 68.0 F. 57.0 F.
Wed Oct 31 04:08:05 2018 68.0 F. 57.0 F.
Wed Oct 31 05:08:05 2018 68.0 F. 57.0 F.
Wed Oct 31 06:08:05 2018 62.0 F. 61.0 F.
Wed Oct 31 07:08:05 2018 62.0 F. 60.1 F.
Wed Oct 31 08:08:05 2018 63.0 F. 62.1 F.
Wed Oct 31 09:08:04 2018 63.0 F. 62.1 F.
Wed Oct 31 10:08:05 2018 63.0 F. 61.0 F.
Wed Oct 31 11:08:05 2018 57.0 F. 57.0 F.
Wed Oct 31 12:08:05 2018 58.0 F. 55.9 F.
Wed Oct 31 13:08:05 2018 57.0 F. 55.0 F.
Wed Oct 31 14:08:05 2018 57.0 F. 55.0 F.
Wed Oct 31 15:08:06 2018 56.0 F. 54.0 F.
Wed Oct 31 16:08:05 2018 55.0 F. 54.0 F.
Wed Oct 31 17:08:04 2018 54.0 F. 53.1 F.
Wed Oct 31 18:08:05 2018 53.0 F. 52.0 F.
Wed Oct 31 19:08:05 2018 53.0 F. 52.0 F.
Wed Oct 31 20:08:05 2018 53.0 F. 52.0 F.
Wed Oct 31 21:08:05 2018 53.0 F. 51.1 F.
Wed Oct 31 22:08:05 2018 52.0 F. 51.1 F.
Wed Oct 31 23:08:05 2018 52.0 F. 51.1 F.
Thu Nov 1 00:08:05 2018 51.0 F. 50.0 F.
Thu Nov 1 01:08:05 2018 50.0 F. 50.0 F.
Thu Nov 1 02:08:05 2018 48.0 F. 46.9 F.
Thu Nov 1 03:08:05 2018 47.0 F. 45.0 F.
Thu Nov 1 04:08:04 2018 47.0 F. 45.0 F.
Thu Nov 1 05:08:05 2018 47.0 F. 45.0 F.
Thu Nov 1 06:08:05 2018 46.0 F. 44.1 F.
Thu Nov 1 07:08:06 2018 46.0 F. 44.1 F.
Thu Nov 1 08:08:05 2018 46.0 F. 44.1 F.
Thu Nov 1 09:08:05 2018 46.0 F. 44.1 F.
Thu Nov 1 10:08:05 2018 46.0 F. 44.1 F.
Thu Nov 1 11:08:05 2018 46.0 F. 45.0 F.
Thu Nov 1 12:08:05 2018 47.0 F. 45.0 F.
Thu Nov 1 13:08:04 2018 47.0 F. 46.0 F.
Thu Nov 1 14:08:06 2018 47.0 F. 45.0 F.
Thu Nov 1 15:08:05 2018 47.0 F. 46.0 F.
Thu Nov 1 16:08:05 2018 47.0 F. 45.0 F.
Thu Nov 1 17:08:05 2018 46.0 F. 44.1 F.
Thu Nov 1 18:08:06 2018 44.0 F. 42.1 F.
Thu Nov 1 19:08:05 2018 44.0 F. 39.9 F.
Thu Nov 1 20:08:05 2018 43.0 F. 42.1 F.
Thu Nov 1 21:08:05 2018 43.0 F. 41.0 F.
Thu Nov 1 22:08:05 2018 43.0 F. 39.9 F.
Thu Nov 1 23:08:05 2018 42.0 F. 39.9 F.
Fri Nov 2 00:08:05 2018 40.0 F. 39.9 F.
Fri Nov 2 01:08:05 2018 41.0 F. 41.0 F.
Fri Nov 2 02:08:05 2018 42.0 F. 41.0 F.
Fri Nov 2 03:08:05 2018 43.0 F. 42.1 F.
Fri Nov 2 04:08:05 2018 42.0 F. 41.0 F.
Fri Nov 2 05:08:05 2018 38.0 F. 37.9 F.
Fri Nov 2 06:08:05 2018 38.0 F. 37.9 F.
Fri Nov 2 07:08:05 2018 36.0 F. 35.1 F.
Fri Nov 2 08:08:05 2018 40.0 F. 39.9 F.
Fri Nov 2 09:08:05 2018 42.0 F. 41.0 F.
Fri Nov 2 10:08:05 2018 44.0 F. 43.0 F.
Fri Nov 2 11:08:05 2018 47.0 F. 44.1 F.
Fri Nov 2 12:08:05 2018 50.0 F. 44.1 F.
Fri Nov 2 13:08:06 2018 51.0 F. 45.0 F.
Fri Nov 2 14:08:06 2018 53.0 F. 44.1 F.
Fri Nov 2 15:08:40 2018
Fri Nov 2 16:08:39 2018
Fri Nov 2 17:08:06 2018 54.0 F. 41.0 F.
Fri Nov 2 18:08:04 2018 49.0 F. 42.1 F.
Fri Nov 2 19:08:06 2018 45.0 F. 42.1 F.
Fri Nov 2 20:08:19 2018 45.0 F. 42.1 F.
Fri Nov 2 21:08:05 2018 45.0 F. 42.1 F.
Fri Nov 2 22:08:05 2018 46.0 F. 43.0 F.
Fri Nov 2 23:08:05 2018 42.0 F. 41.0 F.
Sat Nov 3 00:08:05 2018 39.0 F. 39.0 F.
Sat Nov 3 01:08:05 2018 38.0 F. 37.9 F.
Sat Nov 3 02:08:05 2018 38.0 F. 37.9 F.
Sat Nov 3 03:08:04 2018 37.0 F. 36.0 F.
Sat Nov 3 04:08:05 2018 36.0 F. 36.0 F.
Sat Nov 3 05:08:04 2018 36.0 F. 36.0 F.
Sat Nov 3 06:08:04 2018 35.0 F. 34.0 F.
Sat Nov 3 07:08:04 2018 37.0 F. 36.0 F.
Sat Nov 3 08:08:05 2018 37.0 F. 37.0 F.
Sat Nov 3 09:08:05 2018 43.0 F. 42.1 F.
Sat Nov 3 10:08:05 2018 47.0 F. 43.0 F.
Sat Nov 3 11:08:19 2018 52.0 F. 45.0 F.
Sat Nov 3 12:08:05 2018 51.0 F. 44.1 F.
Sat Nov 3 13:08:06 2018 53.0 F. 45.0 F.
Sat Nov 3 14:08:06 2018 54.0 F. 44.1 F.
Sat Nov 3 15:08:05 2018 55.0 F. 44.1 F.
Sat Nov 3 16:08:05 2018 57.0 F. 44.1 F.
Sat Nov 3 17:08:05 2018 56.0 F. 43.0 F.
Sat Nov 3 18:08:05 2018 55.0 F. 42.1 F.
Sat Nov 3 19:08:04 2018 51.0 F. 44.1 F.
Sat Nov 3 20:08:04 2018 53.0 F. 43.0 F.
Sat Nov 3 21:08:05 2018 53.0 F. 43.0 F.
Sat Nov 3 22:08:05 2018 53.0 F. 43.0 F.
Sat Nov 3 23:08:05 2018 53.0 F. 43.0 F.
Sun Nov 4 00:08:05 2018 56.0 F. 42.1 F.
Sun Nov 4 01:08:05 2018 56.0 F. 42.1 F.
Sun Nov 4 01:08:06 2018 55.0 F. 43.0 F.
Sun Nov 4 02:08:04 2018 55.0 F. 44.1 F.
Sun Nov 4 03:08:04 2018 54.0 F. 44.1 F.
Sun Nov 4 04:08:05 2018 53.0 F. 45.0 F.
Sun Nov 4 05:08:05 2018 54.0 F. 46.0 F.
Sun Nov 4 06:08:05 2018 54.0 F. 46.0 F.
Sun Nov 4 07:08:05 2018 53.0 F. 46.9 F.
Sun Nov 4 08:08:05 2018 55.0 F. 48.0 F.
Sun Nov 4 09:08:04 2018 54.0 F. 50.0 F.
Sun Nov 4 10:08:10 2018 55.0 F. 50.0 F.
Sun Nov 4 11:08:05 2018 56.0 F. 51.1 F.
Sun Nov 4 12:08:05 2018 55.0 F. 51.1 F.
Sun Nov 4 13:08:13 2018 54.0 F. 52.0 F.
Sun Nov 4 14:08:04 2018 54.0 F. 52.0 F.
Sun Nov 4 15:08:05 2018 54.0 F. 52.0 F.
Sun Nov 4 16:08:05 2018 54.0 F. 53.1 F.
Sun Nov 4 17:08:05 2018 55.0 F. 54.0 F.
Sun Nov 4 18:08:05 2018 54.0 F. 53.1 F.
Sun Nov 4 19:08:05 2018 54.0 F. 53.1 F.
Sun Nov 4 20:08:05 2018 52.0 F. 48.0 F.
Sun Nov 4 21:08:05 2018 50.0 F. 46.0 F.
Sun Nov 4 22:08:05 2018 44.0 F. 43.0 F.
Sun Nov 4 23:08:05 2018 44.0 F. 43.0 F.
Mon Nov 5 00:08:05 2018 45.0 F. 43.0 F.
Mon Nov 5 01:08:05 2018 43.0 F. 43.0 F.
Mon Nov 5 02:08:04 2018 45.0 F. 44.1 F.
Mon Nov 5 03:08:04 2018 43.0 F. 43.0 F.
Mon Nov 5 04:08:05 2018 41.0 F. 41.0 F.
Mon Nov 5 05:08:04 2018 39.0 F. 39.0 F.
Mon Nov 5 06:08:05 2018 39.0 F. 39.0 F.
Mon Nov 5 07:08:05 2018 42.0 F. 41.0 F.
Mon Nov 5 08:08:05 2018 45.0 F. 44.1 F.
Mon Nov 5 09:08:05 2018 49.0 F. 46.9 F.
Mon Nov 5 10:08:05 2018 51.0 F. 44.1 F.
Mon Nov 5 11:08:05 2018 53.0 F. 46.9 F.
Mon Nov 5 12:08:05 2018 54.0 F. 48.9 F.
Mon Nov 5 13:08:05 2018 56.0 F. 51.1 F.
Mon Nov 5 14:08:06 2018 55.0 F. 52.0 F.
Mon Nov 5 15:08:05 2018 53.0 F. 53.1 F.
Mon Nov 5 16:08:06 2018 53.0 F. 53.1 F.
Mon Nov 5 17:08:06 2018 54.0 F. 54.0 F.
Mon Nov 5 18:08:05 2018 55.0 F. 55.0 F.
Mon Nov 5 19:08:05 2018 55.0 F. 55.0 F.
Mon Nov 5 20:08:05 2018 56.0 F. 55.9 F.
Mon Nov 5 21:08:05 2018 57.0 F. 55.0 F.
Mon Nov 5 22:08:05 2018 56.0 F. 54.0 F.
Mon Nov 5 23:08:04 2018 53.0 F. 51.1 F.
Tue Nov 6 00:08:05 2018 51.0 F. 48.9 F.
Tue Nov 6 01:08:05 2018 50.0 F. 48.0 F.
Tue Nov 6 02:08:04 2018 49.0 F. 46.9 F.
Tue Nov 6 03:08:04 2018 47.0 F. 46.0 F.
Tue Nov 6 04:08:05 2018 48.0 F. 46.9 F.
Tue Nov 6 05:08:05 2018 48.0 F. 45.0 F.
Tue Nov 6 06:08:04 2018 48.0 F. 45.0 F.
Tue Nov 6 07:08:05 2018 45.0 F. 43.0 F.
Tue Nov 6 08:08:05 2018 50.0 F. 45.0 F.
Tue Nov 6 09:08:05 2018 52.0 F. 44.1 F.
Tue Nov 6 10:08:05 2018 55.0 F. 44.1 F.
Tue Nov 6 11:08:06 2018 56.0 F. 44.1 F.
Tue Nov 6 12:08:05 2018 59.0 F. 44.1 F.
Tue Nov 6 13:08:39 2018
Tue Nov 6 14:08:40 2018
Tue Nov 6 15:08:40 2018
Tue Nov 6 16:08:40 2018
Tue Nov 6 17:08:40 2018
Tue Nov 6 18:08:40 2018
Tue Nov 6 19:08:40 2018
Tue Nov 6 20:08:15 2018 49.0 F. 44.1 F.
Tue Nov 6 21:08:18 2018 49.0 F. 44.1 F.
Tue Nov 6 22:08:15 2018 47.0 F. 41.0 F.
Tue Nov 6 23:08:14 2018 50.0 F. 39.0 F.
Wed Nov 7 00:08:15 2018 48.0 F. 37.9 F.
Wed Nov 7 01:08:15 2018 44.0 F. 39.0 F.
Wed Nov 7 02:08:15 2018 43.0 F. 39.9 F.
Wed Nov 7 03:08:14 2018 43.0 F. 39.9 F.
Wed Nov 7 04:08:15 2018 43.0 F. 37.9 F.
Wed Nov 7 05:08:15 2018 42.0 F. 37.9 F.
Wed Nov 7 06:08:15 2018 42.0 F. 37.9 F.
Wed Nov 7 07:08:15 2018 42.0 F. 37.9 F.
Wed Nov 7 08:08:15 2018 44.0 F. 39.0 F.
Wed Nov 7 09:08:15 2018 47.0 F. 37.0 F.
Wed Nov 7 10:08:16 2018 50.0 F. 35.1 F.
Wed Nov 7 11:08:15 2018 52.0 F. 34.0 F.
Wed Nov 7 12:08:15 2018 54.0 F. 32.0 F.
Wed Nov 7 13:08:32 2018 56.0 F. 33.1 F.
Wed Nov 7 14:08:15 2018 56.0 F. 34.0 F.
Wed Nov 7 15:08:54 2018
Wed Nov 7 16:08:15 2018 55.0 F. 33.1 F.
Wed Nov 7 17:08:37 2018
Wed Nov 7 18:08:14 2018 46.0 F. 34.0 F.
Wed Nov 7 19:08:15 2018 43.0 F. 34.0 F.
Wed Nov 7 20:08:15 2018 41.0 F. 36.0 F.
Wed Nov 7 21:08:15 2018 42.0 F. 33.1 F.
Wed Nov 7 22:08:15 2018 42.0 F. 33.1 F.
Wed Nov 7 23:08:14 2018 40.0 F. 32.0 F.
Thu Nov 8 00:08:14 2018 37.0 F. 32.0 F.
Thu Nov 8 01:08:15 2018 38.0 F. 33.1 F.
Thu Nov 8 02:08:15 2018 39.0 F. 32.0 F.
Thu Nov 8 03:08:14 2018 37.0 F. 30.9 F.
Thu Nov 8 04:08:14 2018 37.0 F. 32.0 F.
Thu Nov 8 05:08:15 2018 37.0 F. 30.9 F.
Thu Nov 8 06:08:15 2018 37.0 F. 30.9 F.
Thu Nov 8 07:08:15 2018 37.0 F. 30.9 F.
Thu Nov 8 08:08:15 2018 37.0 F. 30.9 F.
Thu Nov 8 09:08:15 2018 37.0 F. 30.9 F.
Thu Nov 8 10:08:15 2018 38.0 F. 32.0 F.
Thu Nov 8 11:08:15 2018 38.0 F. 32.0 F.
Thu Nov 8 12:08:15 2018 41.0 F. 33.1 F.
Thu Nov 8 13:08:15 2018 42.0 F. 32.0 F.
Thu Nov 8 14:08:16 2018 43.0 F. 33.1 F.
Thu Nov 8 15:08:15 2018 43.0 F. 33.1 F.
Thu Nov 8 16:08:15 2018 41.0 F. 32.0 F.
Thu Nov 8 17:08:15 2018 41.0 F. 32.0 F.
Thu Nov 8 18:08:15 2018 40.0 F. 33.1 F.
Thu Nov 8 19:08:15 2018 40.0 F. 33.1 F.
Thu Nov 8 20:08:16 2018 41.0 F. 33.1 F.
Thu Nov 8 21:08:15 2018 40.0 F. 33.1 F.
Thu Nov 8 22:08:15 2018 41.0 F. 34.0 F.
Thu Nov 8 23:08:15 2018 40.0 F. 34.0 F.
Fri Nov 9 00:08:15 2018 40.0 F. 34.0 F.
Fri Nov 9 01:08:15 2018 40.0 F. 34.0 F.
Fri Nov 9 02:08:15 2018 40.0 F. 34.0 F.
Fri Nov 9 03:08:14 2018 39.0 F. 35.1 F.
Fri Nov 9 04:08:14 2018 39.0 F. 35.1 F.
Fri Nov 9 05:08:15 2018 38.0 F. 35.1 F.
Fri Nov 9 06:08:15 2018 38.0 F. 35.1 F.
Fri Nov 9 07:08:15 2018 37.0 F. 35.1 F.
Fri Nov 9 08:08:15 2018 37.0 F. 35.1 F.
Fri Nov 9 09:08:15 2018 37.0 F. 34.0 F.
Fri Nov 9 10:08:15 2018 38.0 F. 33.1 F.
Fri Nov 9 11:08:15 2018 37.0 F. 30.9 F.
Fri Nov 9 12:08:15 2018 37.0 F. 32.0 F.
Fri Nov 9 13:08:15 2018 37.0 F. 30.0 F.
Fri Nov 9 14:08:14 2018 38.0 F. 28.9 F.
Fri Nov 9 15:08:15 2018 38.0 F. 28.9 F.
Fri Nov 9 16:08:15 2018 37.0 F. 28.0 F.
Fri Nov 9 17:08:16 2018 36.0 F. 28.0 F.
Fri Nov 9 18:08:15 2018 36.0 F. 28.0 F.
Fri Nov 9 19:08:15 2018 35.0 F. 25.0 F.
Fri Nov 9 20:08:15 2018 35.0 F. 26.1 F.
Fri Nov 9 21:08:15 2018 34.0 F. 25.0 F.
Fri Nov 9 22:08:15 2018 30.0 F. 21.9 F.
Fri Nov 9 23:08:15 2018 29.0 F. 21.0 F.
Sat Nov 10 00:08:15 2018 29.0 F. 21.9 F.
Sat Nov 10 01:08:14 2018 27.0 F. 17.1 F.
Sat Nov 10 02:08:14 2018 26.0 F. 15.1 F.
Sat Nov 10 03:08:15 2018 24.0 F. 14.0 F.
Sat Nov 10 04:08:14 2018 24.0 F. 14.0 F.
Sat Nov 10 05:08:15 2018 21.0 F. 12.0 F.
Sat Nov 10 06:08:15 2018 20.0 F. 12.0 F.
Sat Nov 10 07:08:15 2018 20.0 F. 12.9 F.
Sat Nov 10 08:08:15 2018 23.0 F. 14.0 F.
Sat Nov 10 09:08:08 2018 26.0 F. 14.0 F.
Sat Nov 10 10:08:05 2018 28.0 F. 12.9 F.
Sat Nov 10 11:08:06 2018 29.0 F. 12.9 F.
Sat Nov 10 12:08:05 2018 32.0 F. 12.9 F.
Sat Nov 10 13:08:05 2018 33.0 F. 12.9 F.
Sat Nov 10 14:08:05 2018 35.0 F. 12.9 F.
Sat Nov 10 15:08:05 2018 35.0 F. 12.9 F.
Sat Nov 10 16:08:05 2018 35.0 F. 12.9 F.
Sat Nov 10 17:08:05 2018 31.0 F. 15.1 F.
Sat Nov 10 18:08:05 2018 28.0 F. 16.0 F.
Sat Nov 10 19:08:06 2018 26.0 F. 19.0 F.
Sat Nov 10 20:08:05 2018 25.0 F. 17.1 F.
Sat Nov 10 21:08:05 2018 23.0 F. 18.0 F.
Sat Nov 10 22:08:05 2018 23.0 F. 18.0 F.
Sat Nov 10 23:08:05 2018 24.0 F. 17.1 F.
Sun Nov 11 00:08:05 2018 23.0 F. 17.1 F.
Sun Nov 11 01:08:05 2018 22.0 F. 19.9 F.
Sun Nov 11 02:08:04 2018 26.0 F. 21.0 F.
Sun Nov 11 03:08:05 2018 27.0 F. 21.9 F.
Sun Nov 11 04:08:05 2018 28.0 F. 23.0 F.
Sun Nov 11 05:08:05 2018 29.0 F. 24.1 F.
Sun Nov 11 06:08:05 2018 29.0 F. 21.9 F.
Sun Nov 11 07:08:05 2018 29.0 F. 23.0 F.
Sun Nov 11 08:08:05 2018 32.0 F. 23.0 F.
Sun Nov 11 09:08:04 2018 34.0 F. 21.0 F.
Sun Nov 11 10:08:04 2018 37.0 F. 19.9 F.
Sun Nov 11 11:08:05 2018 39.0 F. 19.9 F.
Sun Nov 11 12:08:14 2018 41.0 F. 21.9 F.
Sun Nov 11 13:08:05 2018 42.0 F. 21.0 F.
Sun Nov 11 14:08:05 2018 45.0 F. 21.9 F.
Sun Nov 11 15:08:05 2018 46.0 F. 19.0 F.
Sun Nov 11 16:08:05 2018 46.0 F. 19.9 F.
Sun Nov 11 17:08:05 2018 40.0 F. 21.9 F.
Sun Nov 11 18:08:05 2018 37.0 F. 27.0 F.
Sun Nov 11 19:08:05 2018 39.0 F. 26.1 F.
Sun Nov 11 20:08:04 2018 40.0 F. 23.0 F.
Sun Nov 11 21:08:05 2018 36.0 F. 28.0 F.
Sun Nov 11 22:08:04 2018 38.0 F. 28.0 F.
Sun Nov 11 23:08:05 2018 38.0 F. 28.9 F.
Mon Nov 12 00:08:04 2018 37.0 F. 30.9 F.
Mon Nov 12 01:08:04 2018 38.0 F. 30.9 F.
Mon Nov 12 02:08:04 2018 37.0 F. 30.9 F.
Mon Nov 12 03:08:04 2018 38.0 F. 28.9 F.
Mon Nov 12 04:08:05 2018 39.0 F. 27.0 F.
Mon Nov 12 05:08:05 2018 36.0 F. 27.0 F.
Mon Nov 12 06:08:05 2018 36.0 F. 27.0 F.
Mon Nov 12 07:08:05 2018 37.0 F. 27.0 F.
Mon Nov 12 08:08:05 2018 38.0 F. 27.0 F.
Mon Nov 12 09:08:05 2018 40.0 F. 27.0 F.
Mon Nov 12 10:08:06 2018 41.0 F. 28.0 F.
Mon Nov 12 11:08:05 2018 42.0 F. 28.0 F.
Mon Nov 12 12:08:05 2018 43.0 F. 26.1 F.
Mon Nov 12 13:08:05 2018 44.0 F. 27.0 F.
Mon Nov 12 14:08:05 2018 43.0 F. 27.0 F.
Mon Nov 12 15:08:05 2018 43.0 F. 30.0 F.
Mon Nov 12 16:08:04 2018 41.0 F. 30.9 F.
Mon Nov 12 17:08:05 2018 40.0 F. 30.9 F.
Mon Nov 12 18:08:05 2018 38.0 F. 30.9 F.
Mon Nov 12 19:08:05 2018 36.0 F. 30.9 F.
Mon Nov 12 20:08:05 2018 35.0 F. 30.0 F.
Mon Nov 12 21:08:05 2018 34.0 F. 30.0 F.
Mon Nov 12 22:08:05 2018 33.0 F. 28.9 F.
Mon Nov 12 23:08:05 2018 32.0 F. 28.9 F.
Tue Nov 13 00:08:05 2018 31.0 F. 28.0 F.
Tue Nov 13 01:08:05 2018 30.0 F. 27.0 F.
Tue Nov 13 02:08:05 2018 30.0 F. 26.1 F.
Tue Nov 13 03:08:05 2018 29.0 F. 26.1 F.
Tue Nov 13 04:08:05 2018 29.0 F. 24.1 F.
Tue Nov 13 05:08:05 2018 29.0 F. 24.1 F.
Tue Nov 13 06:08:05 2018 27.0 F. 21.0 F.
Tue Nov 13 07:08:05 2018 26.0 F. 19.9 F.
Tue Nov 13 08:08:05 2018 25.0 F. 19.0 F.
Tue Nov 13 09:08:05 2018 26.0 F. 18.0 F.
Tue Nov 13 10:08:04 2018 26.0 F. 18.0 F.
Tue Nov 13 11:08:04 2018 27.0 F. 18.0 F.
Tue Nov 13 12:08:05 2018 27.0 F. 18.0 F.
Tue Nov 13 13:08:06 2018 28.0 F. 17.1 F.
Tue Nov 13 14:08:05 2018 30.0 F. 17.1 F.
Tue Nov 13 15:08:06 2018 29.0 F. 18.0 F.
Tue Nov 13 16:08:05 2018 28.0 F. 16.0 F.
Tue Nov 13 17:08:06 2018 26.0 F. 16.0 F.
Tue Nov 13 18:08:05 2018 25.0 F. 16.0 F.
Tue Nov 13 19:08:05 2018 25.0 F. 16.0 F.
Tue Nov 13 20:08:06 2018 25.0 F. 16.0 F.
Tue Nov 13 21:08:04 2018 24.0 F. 17.1 F.
Tue Nov 13 22:08:05 2018 24.0 F. 17.1 F.
Tue Nov 13 23:08:05 2018 24.0 F. 17.1 F.
Wed Nov 14 00:08:05 2018 23.0 F. 17.1 F.
Wed Nov 14 01:08:05 2018 22.0 F. 17.1 F.
Wed Nov 14 02:08:04 2018 21.0 F. 16.0 F.
Wed Nov 14 03:08:05 2018 20.0 F. 16.0 F.
Wed Nov 14 04:08:05 2018 19.0 F. 15.1 F.
Wed Nov 14 05:08:04 2018 20.0 F. 16.0 F.
Wed Nov 14 06:08:06 2018 20.0 F. 16.0 F.
Wed Nov 14 07:08:05 2018 22.0 F. 17.1 F.
Wed Nov 14 08:08:05 2018 24.0 F. 18.0 F.
Wed Nov 14 09:08:05 2018 26.0 F. 17.1 F.
Wed Nov 14 10:08:04 2018 28.0 F. 18.0 F.
Wed Nov 14 11:08:05 2018 30.0 F. 18.0 F.
Wed Nov 14 12:08:05 2018 31.0 F. 19.0 F.
Wed Nov 14 13:08:05 2018 32.0 F. 19.9 F.
Wed Nov 14 14:08:05 2018 32.0 F. 19.0 F.
Wed Nov 14 15:08:04 2018 32.0 F. 19.0 F.
Wed Nov 14 16:08:06 2018 33.0 F. 19.0 F.
Wed Nov 14 17:08:07 2018 32.0 F. 19.0 F.
Wed Nov 14 18:08:05 2018 29.0 F. 24.1 F.
Wed Nov 14 19:08:05 2018 28.0 F. 25.0 F.
Wed Nov 14 20:08:05 2018 27.0 F. 26.1 F.
Wed Nov 14 21:08:05 2018 27.0 F. 26.1 F.
Wed Nov 14 22:08:05 2018 28.0 F. 26.1 F.
Wed Nov 14 23:08:05 2018 28.0 F. 26.1 F.
Thu Nov 15 00:08:04 2018 28.0 F. 27.0 F.
Thu Nov 15 01:08:05 2018 28.0 F. 27.0 F.
Thu Nov 15 02:08:05 2018 28.0 F. 27.0 F.
Thu Nov 15 03:08:05 2018 28.0 F. 27.0 F.
Thu Nov 15 04:08:05 2018 28.0 F. 27.0 F.
Thu Nov 15 05:08:05 2018 28.0 F. 26.1 F.
Thu Nov 15 06:08:05 2018 27.0 F. 27.0 F.
Thu Nov 15 07:08:05 2018 28.0 F. 26.1 F.
Thu Nov 15 08:08:05 2018 28.0 F. 26.1 F.
Thu Nov 15 09:08:18 2018 29.0 F. 27.0 F.
Thu Nov 15 10:08:05 2018 30.0 F. 26.1 F.
Thu Nov 15 11:08:05 2018 30.0 F. 26.1 F.
Thu Nov 15 12:08:05 2018 30.0 F. 27.0 F.
Thu Nov 15 13:08:05 2018 31.0 F. 27.0 F.
Thu Nov 15 14:08:05 2018 31.0 F. 27.0 F.
Thu Nov 15 15:08:04 2018 32.0 F. 27.0 F.
Thu Nov 15 16:08:04 2018 32.0 F. 27.0 F.
Thu Nov 15 17:08:05 2018 32.0 F. 27.0 F.
Thu Nov 15 18:08:05 2018 26.0 F. 24.1 F.
Thu Nov 15 19:08:05 2018 27.0 F. 25.0 F.
Thu Nov 15 20:08:05 2018 27.0 F. 25.0 F.
Thu Nov 15 21:08:05 2018 26.0 F. 24.1 F.
Thu Nov 15 22:08:04 2018 27.0 F. 26.1 F.
Thu Nov 15 23:08:05 2018 30.0 F. 27.0 F.
Fri Nov 16 00:08:05 2018 31.0 F. 28.0 F.
Fri Nov 16 01:08:04 2018 31.0 F. 27.0 F.
Fri Nov 16 02:08:05 2018 31.0 F. 27.0 F.
Fri Nov 16 03:08:05 2018 31.0 F. 27.0 F.
Fri Nov 16 04:08:05 2018 31.0 F. 27.0 F.
Fri Nov 16 05:08:05 2018 31.0 F. 27.0 F.
Fri Nov 16 06:08:05 2018 27.0 F. 25.0 F.
Fri Nov 16 07:08:05 2018 25.0 F. 23.0 F.
Fri Nov 16 08:08:05 2018 32.0 F. 28.0 F.
Fri Nov 16 09:08:05 2018 38.0 F. 30.0 F.
Fri Nov 16 10:08:05 2018 42.0 F. 32.0 F.
Fri Nov 16 11:08:06 2018 45.0 F. 33.1 F.
Fri Nov 16 12:08:05 2018 47.0 F. 35.1 F.
Fri Nov 16 13:08:05 2018 48.0 F. 36.0 F.
Fri Nov 16 14:08:05 2018 50.0 F. 37.0 F.
Fri Nov 16 15:08:05 2018 50.0 F. 36.0 F.
Fri Nov 16 16:08:04 2018 50.0 F. 36.0 F.
Fri Nov 16 17:08:06 2018 42.0 F. 34.0 F.
Fri Nov 16 18:08:05 2018 40.0 F. 34.0 F.
Fri Nov 16 19:08:05 2018 36.0 F. 33.1 F.
Fri Nov 16 20:08:05 2018 32.0 F. 30.9 F.
Fri Nov 16 21:08:05 2018 31.0 F. 30.0 F.
Fri Nov 16 22:08:05 2018 30.0 F. 28.0 F.
Fri Nov 16 23:08:05 2018 29.0 F. 28.0 F.
Sat Nov 17 00:08:04 2018 29.0 F. 28.0 F.
Sat Nov 17 01:08:05 2018 29.0 F. 28.0 F.
Sat Nov 17 02:08:05 2018 28.0 F. 27.0 F.
Sat Nov 17 03:08:05 2018 28.0 F. 27.0 F.
Sat Nov 17 04:08:05 2018 29.0 F. 28.0 F.
Sat Nov 17 05:08:05 2018 28.0 F. 27.0 F.
Sat Nov 17 06:08:04 2018 29.0 F. 27.0 F.
Sat Nov 17 07:08:05 2018 31.0 F. 30.0 F.
Sat Nov 17 08:08:05 2018 35.0 F. 34.0 F.
Sat Nov 17 09:08:05 2018 40.0 F. 37.0 F.
Sat Nov 17 10:08:05 2018 46.0 F. 39.0 F.
Sat Nov 17 11:08:05 2018 52.0 F. 41.0 F.
Sat Nov 17 12:08:05 2018 57.0 F. 42.1 F.
Sat Nov 17 13:08:05 2018 59.0 F. 43.0 F.
Sat Nov 17 14:08:05 2018 60.0 F. 43.0 F.
Sat Nov 17 15:08:05 2018 61.0 F. 44.1 F.
Sat Nov 17 16:08:05 2018 58.0 F. 44.1 F.
Sat Nov 17 17:08:05 2018 53.0 F. 42.1 F.